DW3092 Weather Reports


Display with metric or nautical units.
time (UTC)temp
F
wind
direction
speed
MPH
gust
MPH
rain 1hr
in
rain 24hr
in
rain mn
in
humidity
%
barometer
mb
20260507182055 63 7 3.0 6.0 0.00 0.05 0.05 29 1006.6
20260507181553 63 159 4.0 5.0 0.00 0.05 0.05 30 1006.6
20260507181049 64 306 3.0 4.0 0.00 0.05 0.05 29 1006.7
20260507180545 62 89 1.0 4.0 0.00 0.05 0.05 31 1006.5
20260507180042 63 0 2.0 6.0 0.00 0.05 0.05 33 1006.6
20260507175538 62 312 2.0 6.0 0.00 0.05 0.05 32 1006.4
20260507175037 62 152 3.0 9.0 0.00 0.05 0.05 30 1006.7
20260507174533 63 338 5.0 5.0 0.00 0.05 0.05 31 1006.7
20260507174031 63 9 3.0 4.0 0.00 0.05 0.05 32 1006.5
20260507173527 62 209 2.0 4.0 0.00 0.05 0.05 35 1006.5
20260507173025 62 149 7.0 7.0 0.00 0.05 0.05 33 1006.5
20260507172520 62 325 4.0 4.0 0.00 0.05 0.05 32 1006.5
20260507172017 63 154 5.0 8.0 0.00 0.05 0.05 32 1006.7
20260507171513 63 330 1.0 4.0 0.00 0.05 0.05 34 1006.5
20260507171011 61 23 2.0 4.0 0.00 0.05 0.05 37 1006.8
20260507170507 60 10 2.0 6.0 0.00 0.05 0.05 36 1007.0
20260507170004 61 264 3.0 7.0 0.00 0.05 0.05 34 1007.2
20260507165500 61 80 2.0 4.0 0.00 0.05 0.05 36 1006.8
20260507164956 62 179 2.0 5.0 0.00 0.05 0.05 37 1007.2
20260507164453 61 251 2.0 5.0 0.00 0.05 0.05 35 1007.1
20260507163949 62 253 2.0 6.0 0.00 0.05 0.05 36 1007.3
20260507163447 61 131 2.0 4.0 0.00 0.05 0.05 36 1007.2
20260507162944 60 287 0.0 9.0 0.00 0.05 0.05 36 1007.3
20260507162439 61 316 2.0 4.0 0.00 0.05 0.05 35 1007.4
20260507161937 60 185 4.0 5.0 0.00 0.05 0.05 36 1007.3
20260507161432 61 136 4.0 4.0 0.00 0.05 0.05 40 1007.2
20260507160929 60 163 2.0 7.0 0.00 0.05 0.05 41 1007.3
20260507160425 59 178 3.0 11.0 0.00 0.05 0.05 40 1007.5
20260507155921 60 285 5.0 7.0 0.00 0.05 0.05 38 1007.5
20260507155417 60 180 2.0 4.0 0.00 0.05 0.05 44 1007.5
20260507154915 60 8 2.0 9.0 0.00 0.05 0.05 40 1007.2
20260507154412 60 307 2.0 8.0 0.00 0.05 0.05 41 1007.5
20260507153909 60 150 4.0 5.0 0.00 0.05 0.05 46 1007.5
20260507153405 59 84 1.0 4.0 0.00 0.05 0.05 45 1007.3
20260507152902 59 210 2.0 7.0 0.00 0.05 0.05 45 1007.4
20260507152358 59 301 3.0 5.0 0.00 0.05 0.05 45 1007.4
20260507151854 58 260 3.0 8.0 0.00 0.05 0.05 45 1007.6
20260507151351 58 321 6.0 6.0 0.00 0.05 0.05 49 1007.7
20260507150847 58 234 4.0 6.0 0.00 0.05 0.05 50 1007.8
20260507150344 57 249 2.0 4.0 0.00 0.05 0.05 52 1007.7
20260507145840 58 29 4.0 4.0 0.00 0.05 0.05 52 1007.6
20260507145337 58 253 2.0 3.0 0.00 0.05 0.05 53 1007.8
20260507144834 56 114 1.0 2.0 0.00 0.05 0.05 55 1008.0
20260507144331 56 281 2.0 3.0 0.00 0.05 0.05 55 1007.8
20260507143827 56 357 1.0 4.0 0.00 0.05 0.05 56 1008.1
20260507143325 56 210 2.0 6.0 0.00 0.05 0.05 59 1008.0
20260507142821 55 251 1.0 4.0 0.00 0.05 0.05 60 1008.0
20260507142317 55 236 0.0 3.0 0.00 0.05 0.05 63 1007.9
20260507141814 55 170 1.0 4.0 0.00 0.05 0.05 61 1008.0
20260507141311 56 161 3.0 6.0 0.00 0.05 0.05 60 1008.1
20260507140807 56 139 4.0 6.0 0.00 0.05 0.05 59 1008.0
20260507140304 55 151 4.0 6.0 0.00 0.05 0.05 62 1008.2
20260507135802 55 169 2.0 4.0 0.00 0.05 0.05 62 1007.9
20260507135259 55 70 3.0 4.0 0.00 0.05 0.05 62 1008.1
20260507134755 55 96 0.0 1.0 0.00 0.05 0.05 63 1008.0
20260507134252 55 139 5.0 6.0 0.00 0.05 0.05 61 1008.0
20260507133748 55 151 3.0 7.0 0.00 0.05 0.05 63 1008.0
20260507133244 55 130 4.0 4.0 0.00 0.05 0.05 62 1008.1
20260507132742 55 230 0.0 3.0 0.00 0.05 0.05 66 1008.1
20260507132239 54 153 2.0 5.0 0.00 0.05 0.05 63 1008.1
20260507131735 54 116 0.0 4.0 0.00 0.05 0.05 66 1008.0
20260507131233 54 310 2.0 4.0 0.00 0.05 0.05 65 1008.1
20260507130729 53 74 2.0 2.0 0.00 0.05 0.05 66 1008.3
20260507130227 53 80 1.0 5.0 0.00 0.05 0.05 68 1008.3
20260507125725 53 111 0.0 4.0 0.00 0.05 0.05 69 1008.2
20260507125223 53 46 2.0 3.0 0.00 0.05 0.05 70 1008.1
20260507124719 52 152 2.0 4.0 0.00 0.05 0.05 70 1008.3
20260507124216 52 147 2.0 6.0 0.00 0.05 0.05 72 1008.1
20260507123715 52 188 1.0 3.0 0.00 0.05 0.05 72 1008.2
20260507123212 51 228 1.0 6.0 0.00 0.05 0.05 74 1008.2
20260507122707 51 169 1.0 4.0 0.00 0.05 0.05 77 1008.3
20260507122203 51 118 2.0 6.0 0.00 0.05 0.05 78 1008.5
20260507121659 50 127 3.0 5.0 0.00 0.05 0.05 81 1008.2
20260507121155 50 28 2.0 3.0 0.00 0.05 0.05 82 1008.1
20260507120651 50 161 2.0 5.0 0.00 0.05 0.05 83 1008.2
20260507120148 49 132 1.0 2.0 0.00 0.05 0.05 86 1008.3
20260507115644 49 134 0.0 3.0 0.00 0.05 0.05 86 1008.2
20260507115140 49 136 2.0 2.0 0.00 0.05 0.05 87 1008.2
20260507114636 49 49 0.0 2.0 0.00 0.05 0.05 87 1008.1
20260507114133 49 77 1.0 2.0 0.00 0.05 0.05 87 1008.2
20260507113631 49 113 0.0 2.0 0.00 0.05 0.05 88 1008.3
20260507113127 49 144 1.0 3.0 0.00 0.05 0.05 89 1008.1
20260507112625 48 165 2.0 4.0 0.00 0.05 0.05 89 1008.1
20260507112122 48 235 0.0 2.0 0.00 0.05 0.05 89 1008.0
20260507111619 48 150 0.0 4.0 0.00 0.05 0.05 89 1008.2
20260507111116 48 145 0.0 1.0 0.00 0.05 0.05 90 1008.2
20260507110612 48 164 2.0 2.0 0.00 0.05 0.05 91 1007.8
20260507110109 48 202 0.0 2.0 0.00 0.05 0.05 91 1007.9
20260507105606 48 113 0.0 2.0 0.00 0.05 0.05 92 1007.7
20260507105101 48 66 0.0 1.0 0.00 0.05 0.05 92 1007.7
20260507104559 48 118 1.0 2.0 0.00 0.05 0.05 92 1008.2
20260507104056 48 118 2.0 3.0 0.00 0.05 0.05 92 1008.1
20260507103552 48 97 0.0 2.0 0.00 0.05 0.05 92 1008.1
20260507103049 48 96 2.0 2.0 0.00 0.05 0.05 92 1008.1
20260507102545 48 109 2.0 2.0 0.00 0.05 0.05 92 1007.7
20260507102041 47 97 2.0 2.0 0.00 0.05 0.05 92 1007.6
20260507101537 47 108 2.0 2.0 0.00 0.05 0.05 92 1007.6
20260507101033 47 92 1.0 3.0 0.02 0.05 0.05 91 1007.5
20260507100531 47 108 1.0 4.0 0.05 0.05 0.05 91 1007.2
20260507100029 47 139 1.0 2.0 0.02 0.04 0.04 92 1007.1
20260507095526 47 126 0.0 2.0 0.00 0.04 0.04 92 1007.2
20260507095023 47 124 0.0 2.0 0.00 0.04 0.04 92 1007.4
20260507094519 47 113 2.0 4.0 0.00 0.04 0.04 92 1007.3
20260507094016 47 95 2.0 2.0 0.00 0.04 0.04 92 1007.0
20260507093514 47 89 0.0 2.0 0.02 0.04 0.04 92 1007.2
20260507093012 47 131 0.0 2.0 0.02 0.04 0.04 92 1007.3
20260507092508 48 53 0.0 3.0 0.00 0.04 0.04 91 1007.2
20260507092005 48 110 0.0 2.0 0.02 0.04 0.04 90 1007.7
20260507091502 48 123 1.0 2.0 0.07 0.04 0.04 89 1007.4
20260507090957 48 75 0.0 2.0 0.05 0.03 0.03 89 1007.5
20260507090453 48 152 1.0 3.0 0.02 0.02 0.02 87 1007.5
20260507085950 48 212 0.0 6.0 0.02 0.02 0.02 86 1007.6
20260507085447 48 235 1.0 2.0 0.05 0.02 0.02 86 1007.7
20260507084944 49 104 1.0 2.0 0.02 0.02 0.02 85 1007.9
20260507084441 49 145 0.0 3.0 0.00 0.01 0.01 84 1007.8
20260507083938 49 127 0.0 2.0 0.00 0.01 0.01 83 1007.9
20260507083434 49 188 0.0 2.0 0.00 0.01 0.01 83 1007.6
20260507082931 49 111 0.0 5.0 0.00 0.01 0.01 83 1007.8
20260507082427 49 127 3.0 3.0 0.00 0.01 0.01 83 1007.5
20260507081924 49 191 1.0 4.0 0.00 0.01 0.01 83 1007.7
20260507081420 49 229 2.0 2.0 0.00 0.01 0.01 83 1007.5
20260507080917 49 199 1.0 2.0 0.00 0.01 0.01 84 1007.5
20260507080413 49 127 0.0 2.0 0.00 0.01 0.01 84 1007.0
20260507075908 49 136 0.0 2.0 0.00 0.01 0.01 84 1007.2
20260507075405 49 79 2.0 2.0 0.00 0.01 0.01 84 1007.4
20260507074901 49 215 1.0 2.0 0.00 0.01 0.01 84 1007.6
20260507074358 49 210 3.0 3.0 0.00 0.01 0.01 84 1007.6
20260507073856 50 116 0.0 3.0 0.02 0.01 0.01 84 1007.7
20260507073352 50 156 0.0 3.0 0.07 0.01 0.01 83 1007.3
20260507072849 51 119 3.0 4.0 0.02 0.00 0.00 80 1007.1
20260507072347 51 150 0.0 3.0 0.00 0.00 0.00 78 1007.5
20260507071844 51 56 0.0 5.0 0.00 0.00 0.00 78 1007.5
20260507071341 52 86 0.0 3.0 0.00 0.00 0.00 78 1006.9
20260507070837 52 165 2.0 5.0 0.00 0.00 0.00 78 1006.7
20260507070335 52 185 1.0 3.0 0.00 0.00 0.00 79 1006.9
20260507065831 52 70 1.0 5.0 0.00 0.00 0.00 80 1007.0
20260507065328 52 95 0.0 3.0 0.00 0.00 0.00 80 1006.8
20260507064825 52 177 3.0 4.0 0.00 0.00 0.00 79 1006.7
20260507064324 52 60 0.0 2.0 0.00 0.00 0.00 79 1006.7
20260507063821 53 161 1.0 2.0 0.00 0.00 0.00 79 1006.5
20260507063318 53 178 3.0 4.0 0.00 0.00 0.00 80 1006.5
20260507062815 53 224 0.0 2.0 0.00 0.00 0.00 82 1006.7
20260507062312 53 213 1.0 3.0 0.00 0.00 0.00 81 1006.7
20260507061810 53 176 2.0 4.0 0.00 0.00 0.00 82 1006.8
20260507061307 54 297 0.0 2.0 0.00 0.00 0.00 84 1006.8
20260507060806 54 175 1.0 2.0 0.00 0.00 0.00 84 1006.8
20260507060302 54 175 0.0 2.0 0.00 0.00 0.00 84 1006.6
20260507055758 54 162 2.0 2.0 0.00 0.00 0.00 84 1006.5
20260507055254 54 150 2.0 3.0 0.00 0.00 0.00 83 1006.7
20260507054750 54 129 0.0 2.0 0.00 0.00 0.00 83 1006.8
20260507054247 54 144 0.0 4.0 0.00 0.00 0.00 82 1006.9
20260507053744 54 32 0.0 1.0 0.00 0.00 0.00 84 1007.1
20260507053242 55 184 1.0 4.0 0.00 0.00 0.00 83 1006.7
20260507052741 55 117 2.0 2.0 0.00 0.00 0.00 82 1006.9
20260507052236 55 295 2.0 4.0 0.00 0.00 0.00 82 1006.9
20260507051735 55 155 2.0 5.0 0.00 0.00 0.00 81 1007.0
20260507051231 55 241 2.0 6.0 0.00 0.00 0.00 82 1006.9
20260507050728 55 221 0.0 4.0 0.00 0.00 0.00 82 1006.9
20260507050225 55 218 3.0 5.0 0.00 0.00 0.00 81 1006.7
20260507045722 56 195 2.0 4.0 0.00 0.00 0.00 82 1006.9
20260507045218 56 214 0.0 2.0 0.00 0.00 0.00 82 1006.8
20260507044715 56 110 0.0 3.0 0.00 0.00 0.00 82 1006.9
20260507044212 56 355 1.0 4.0 0.00 0.00 0.00 82 1007.1
20260507043708 56 94 0.0 6.0 0.00 0.00 0.00 82 1007.1
20260507043205 57 166 3.0 4.0 0.00 0.00 0.00 83 1006.8
20260507042701 57 164 2.0 6.0 0.00 0.00 0.00 85 1006.8
20260507042156 57 247 4.0 4.0 0.00 0.00 0.00 87 1006.7
20260507041654 58 208 0.0 6.0 0.00 0.00 0.00 87 1006.8
20260507041150 58 181 2.0 3.0 0.00 0.00 0.00 87 1006.9
20260507040647 58 182 2.0 4.0 0.00 0.00 0.00 87 1006.9
20260507040143 58 56 2.0 4.0 0.00 0.00 0.00 87 1006.7
20260507035639 58 176 1.0 4.0 0.00 0.10 0.10 86 1006.8
20260507035136 59 46 2.0 2.0 0.00 0.10 0.10 86 1006.8
20260507034633 59 174 2.0 5.0 0.00 0.10 0.10 85 1007.0
20260507034130 59 227 2.0 3.0 0.00 0.10 0.10 87 1006.9
20260507033628 59 249 1.0 2.0 0.00 0.10 0.10 88 1006.9
20260507033125 59 227 0.0 3.0 0.00 0.10 0.10 91 1006.6
20260507032623 59 251 2.0 3.0 0.00 0.10 0.10 92 1006.4
20260507032119 59 206 0.0 1.0 0.00 0.10 0.10 93 1006.4
20260507031615 59 136 2.0 3.0 0.00 0.10 0.10 93 1006.4
20260507031112 59 154 0.0 2.0 0.00 0.10 0.10 93 1006.5
20260507030609 59 120 2.0 3.0 0.00 0.10 0.10 93 1006.2
20260507030107 59 31 1.0 5.0 0.00 0.10 0.10 93 1006.0
20260507025603 59 138 5.0 6.0 0.00 0.10 0.10 93 1006.2
20260507025100 59 145 3.0 4.0 0.00 0.10 0.10 93 1006.1
20260507024559 59 93 2.0 4.0 0.00 0.10 0.10 92 1006.3
20260507024055 59 107 2.0 5.0 0.00 0.10 0.10 92 1005.9
20260507023551 59 126 4.0 6.0 0.00 0.10 0.10 92 1005.9
20260507023049 59 150 5.0 5.0 0.00 0.10 0.10 93 1005.9
20260507022545 59 135 3.0 6.0 0.00 0.10 0.10 93 1006.0
20260507022040 59 153 6.0 6.0 0.00 0.10 0.10 93 1006.0
20260507021537 59 144 3.0 9.0 0.00 0.10 0.10 93 1006.1
20260507021033 59 139 4.0 5.0 0.00 0.10 0.10 93 1006.0
20260507020531 59 141 4.0 6.0 0.00 0.10 0.10 93 1005.6
20260507020027 59 127 3.0 3.0 0.00 0.10 0.10 93 1005.9
20260507015526 58 128 4.0 7.0 0.00 0.10 0.10 94 1006.1
20260507015023 58 111 3.0 5.0 0.00 0.10 0.10 93 1006.0
20260507014519 58 122 3.0 4.0 0.00 0.10 0.10 94 1006.0
20260507014015 58 111 2.0 4.0 0.00 0.10 0.10 94 1005.9
20260507013512 58 104 3.0 4.0 0.00 0.10 0.10 94 1005.9
20260507013009 58 95 2.0 5.0 0.00 0.10 0.10 94 1005.9
20260507012506 58 114 4.0 5.0 0.00 0.10 0.10 94 1006.0
20260507012003 58 121 2.0 5.0 0.00 0.10 0.10 94 1006.0
20260507011500 59 136 4.0 4.0 0.00 0.10 0.10 93 1006.0
20260507010955 58 135 4.0 8.0 0.00 0.10 0.10 93 1006.1
20260507010450 58 125 4.0 6.0 0.00 0.10 0.10 94 1006.3
20260507005947 58 131 6.0 9.0 0.00 0.10 0.10 94 1006.4
20260507005445 58 142 4.0 7.0 0.02 0.10 0.10 94 1006.2
20260507004941 58 141 4.0 4.0 0.02 0.10 0.10 94 1006.2
20260507004437 58 146 6.0 7.0 0.00 0.10 0.10 94 1006.1
20260507003936 58 139 6.0 6.0 0.00 0.10 0.10 94 1006.3
20260507003430 58 145 4.0 6.0 0.00 0.10 0.10 94 1006.3
20260507002926 58 140 4.0 5.0 0.00 0.10 0.10 94 1006.2
20260507002422 58 113 2.0 4.0 0.00 0.10 0.10 94 1006.3
20260507001919 58 147 6.0 6.0 0.00 0.10 0.10 94 1006.2
20260507001416 58 127 4.0 4.0 0.00 0.10 0.10 94 1006.2
20260507000914 58 121 3.0 4.0 0.00 0.10 0.10 94 1005.9
20260507000408 58 115 4.0 5.0 0.00 0.10 0.10 94 1006.1
20260506235905 58 112 4.0 5.0 0.00 0.10 0.10 94 1005.9
20260506235402 58 116 3.0 6.0 0.00 0.10 0.10 94 1005.9
20260506234858 58 117 4.0 5.0 0.00 0.10 0.10 94 1005.8
20260506234355 58 136 4.0 6.0 0.02 0.10 0.10 94 1005.7
20260506233853 58 106 2.0 5.0 0.02 0.10 0.10 94 1005.9
20260506233349 58 117 4.0 5.0 0.00 0.09 0.09 94 1005.9
20260506232846 58 112 4.0 6.0 0.02 0.09 0.09 94 1005.7
20260506232342 58 131 3.0 6.0 0.05 0.09 0.09 94 1005.6
20260506231838 59 122 4.0 6.0 0.02 0.09 0.09 94 1005.8
20260506231336 59 110 4.0 5.0 0.00 0.09 0.09 94 1005.9
20260506230833 59 118 3.0 5.0 0.00 0.09 0.09 94 1005.6
20260506230330 59 124 3.0 5.0 0.05 0.09 0.09 94 1005.9
20260506225826 59 114 2.0 4.0 0.05 0.08 0.08 93 1005.7
20260506225324 59 146 4.0 5.0 0.05 0.08 0.08 93 1005.7
20260506224820 59 139 6.0 6.0 0.02 0.07 0.07 93 1005.6
20260506224318 59 113 2.0 5.0 0.00 0.07 0.07 93 1005.9
20260506223814 59 114 2.0 5.0 0.00 0.07 0.07 93 1005.9
20260506223309 59 102 2.0 6.0 0.00 0.07 0.07 93 1006.1
20260506222807 59 123 4.0 4.0 0.02 0.07 0.07 93 1006.1
20260506222305 59 152 5.0 7.0 0.02 0.07 0.07 92 1006.0
20260506221800 59 109 4.0 5.0 0.00 0.07 0.07 92 1006.0
20260506221258 59 116 3.0 4.0 0.00 0.07 0.07 92 1006.1
20260506220755 59 116 2.0 5.0 0.00 0.07 0.07 92 1006.3
20260506220255 59 136 3.0 4.0 0.00 0.07 0.07 92 1006.3
20260506215752 59 129 4.0 4.0 0.00 0.07 0.07 91 1006.2
20260506215248 59 116 4.0 6.0 0.00 0.07 0.07 91 1006.3
20260506214744 59 95 4.0 6.0 0.00 0.07 0.07 91 1006.1
20260506214241 59 140 6.0 10.0 0.02 0.07 0.07 91 1006.1
20260506213740 59 135 4.0 7.0 0.05 0.07 0.07 91 1006.6
20260506213237 60 146 5.0 7.0 0.02 0.06 0.06 90 1006.6
20260506212734 60 111 3.0 5.0 0.00 0.06 0.06 90 1006.5
20260506212230 60 108 3.0 4.0 0.00 0.06 0.06 90 1006.4
20260506211725 60 109 4.0 5.0 0.00 0.06 0.06 90 1006.5
20260506211222 60 75 2.0 7.0 0.00 0.06 0.06 90 1006.6
20260506210719 59 169 2.0 5.0 0.00 0.06 0.06 90 1006.6
20260506210216 59 154 12.0 12.0 0.00 0.06 0.06 90 1006.6
20260506205713 59 139 4.0 4.0 0.00 0.06 0.06 90 1006.7
20260506205208 59 118 3.0 5.0 0.00 0.06 0.06 90 1006.7
20260506204705 59 115 5.0 5.0 0.00 0.06 0.06 90 1006.7
20260506204202 59 146 4.0 6.0 0.00 0.06 0.06 89 1006.6
20260506203700 60 99 3.0 6.0 0.00 0.06 0.06 89 1006.8
20260506203157 60 144 5.0 8.0 0.02 0.06 0.06 89 1007.0
20260506202655 60 130 4.0 5.0 0.02 0.06 0.06 89 1007.1
20260506202150 60 112 4.0 7.0 0.00 0.06 0.06 89 1006.9
20260506201648 60 116 6.0 8.0 0.00 0.06 0.06 90 1006.9
20260506201144 60 141 4.0 5.0 0.00 0.06 0.06 90 1006.8
20260506200641 60 100 2.0 5.0 0.00 0.06 0.06 90 1007.0
20260506200138 60 134 5.0 6.0 0.00 0.06 0.06 90 1006.9
20260506195635 60 127 4.0 6.0 0.00 0.06 0.06 90 1006.8
20260506195131 60 125 4.0 4.0 0.00 0.06 0.06 90 1006.9
20260506194629 60 134 4.0 6.0 0.00 0.06 0.06 89 1007.0
20260506194124 60 146 4.0 6.0 0.02 0.06 0.06 89 1006.9
20260506193623 60 149 6.0 6.0 0.05 0.06 0.06 89 1007.1
20260506193120 60 115 4.0 6.0 0.09 0.05 0.05 88 1007.1
20260506192616 61 114 5.0 10.0 0.09 0.05 0.05 86 1007.0
20260506192112 61 114 4.0 8.0 0.07 0.04 0.04 85 1007.2
20260506191609 62 114 3.0 6.0 0.05 0.03 0.03 85 1007.1
20260506191105 62 103 3.0 5.0 0.05 0.02 0.02 83 1007.0
20260506190603 62 139 5.0 8.0 0.05 0.02 0.02 82 1007.0
20260506190059 63 54 1.0 5.0 0.02 0.02 0.02 81 1007.0
20260506185556 63 127 3.0 4.0 0.02 0.01 0.01 79 1007.2
20260506185053 64 109 2.0 4.0 0.05 0.01 0.01 78 1007.2
20260506184550 65 149 4.0 6.0 0.05 0.01 0.01 74 1007.2
20260506184047 66 116 3.0 5.0 0.02 0.00 0.00 72 1007.1
20260506183543 66 129 3.0 5.0 0.00 0.00 0.00 70 1007.5
20260506183040 67 137 3.0 4.0 0.00 0.00 0.00 68 1007.5
20260506182538 67 130 3.0 6.0 0.00 0.00 0.00 68 1007.6